Time,TemperatureF,DewpointF,PressureIn,WindDirection,WindDirectionDegrees,WindSpeedMPH,WindSpeedGustMPH,Humidity,HourlyPrecipIn,Conditions,Clouds,dailyrainin,SoftwareType,DateUTC
2013-01-17 00:03:00,30.2,29.5,29.80,SE,140,0.0,0.0,97,0.00,,,0.00,LWC V2.10 B1813,2013-01-17 05:03:00,
2013-01-17 00:08:00,30.1,29.4,29.80,SE,140,0.0,0.0,97,0.00,,,0.00,LWC V2.10 B1813,2013-01-17 05:08:00,
2013-01-17 00:13:00,30.0,29.3,29.80,West,280,0.0,0.0,97,0.00,,,0.00,LWC V2.10 B1813,2013-01-17 05:13:00,
2013-01-17 00:18:00,29.9,29.2,29.81,West,280,0.0,0.0,97,0.00,,,0.00,LWC V2.10 B1813,2013-01-17 05:18:00,
2013-01-17 00:23:00,29.8,29.1,29.81,West,269,0.0,0.0,97,0.00,,,0.00,LWC V2.10 B1813,2013-01-17 05:23:00,
2013-01-17 00:28:00,29.8,29.1,29.81,SE,130,0.0,0.0,97,0.00,,,0.00,LWC V2.10 B1813,2013-01-17 05:28:00,
2013-01-17 00:33:00,29.6,28.9,29.81,SE,130,0.0,0.0,97,0.00,,,0.00,LWC V2.10 B1813,2013-01-17 05:33:00,
2013-01-17 00:38:00,29.4,28.7,29.81,SE,130,0.0,0.0,97,0.00,,,0.00,LWC V2.10 B1813,2013-01-17 05:38:00,
2013-01-17 00:43:00,29.2,28.5,29.81,SE,130,0.0,0.0,97,0.00,,,0.00,LWC V2.10 B1813,2013-01-17 05:43:00,
2013-01-17 00:48:00,29.0,28.3,29.81,SE,131,0.0,0.0,97,0.00,,,0.00,LWC V2.10 B1813,2013-01-17 05:48:00,
2013-01-17 00:53:00,28.7,28.0,29.81,SE,130,0.0,0.0,97,0.00,,,0.00,LWC V2.10 B1813,2013-01-17 05:53:00,
2013-01-17 00:58:00,28.5,27.8,29.82,SE,130,0.0,0.0,97,0.00,,,0.00,LWC V2.10 B1813,2013-01-17 05:58:00,
2013-01-17 01:03:00,28.1,27.4,29.82,SE,130,0.0,0.0,97,0.00,,,0.00,LWC V2.10 B1813,2013-01-17 06:03:00,
2013-01-17 01:08:00,27.8,27.1,29.82,SE,132,0.0,0.0,97,0.00,,,0.00,LWC V2.10 B1813,2013-01-17 06:08:00,
2013-01-17 01:13:00,27.6,26.9,29.82,SE,130,0.0,0.0,97,0.00,,,0.00,LWC V2.10 B1813,2013-01-17 06:13:00,
2013-01-17 01:18:00,27.3,26.6,29.82,SE,130,0.0,0.0,97,0.00,,,0.00,LWC V2.10 B1813,2013-01-17 06:18:00,
2013-01-17 01:23:00,27.0,26.3,29.82,SE,130,0.0,0.0,97,0.00,,,0.00,LWC V2.10 B1813,2013-01-17 06:23:00,
2013-01-17 01:28:00,26.8,26.1,29.83,SE,130,0.0,0.0,97,0.00,,,0.00,LWC V2.10 B1813,2013-01-17 06:28:00,
2013-01-17 01:33:00,26.5,25.8,29.83,SE,130,0.0,0.0,97,0.00,,,0.00,LWC V2.10 B1813,2013-01-17 06:33:00,
2013-01-17 01:38:00,26.3,25.6,29.83,WSW,244,0.0,0.0,97,0.00,,,0.00,LWC V2.10 B1813,2013-01-17 06:38:00,
2013-01-17 01:43:00,26.1,25.4,29.83,WSW,244,0.0,0.0,97,0.00,,,0.00,LWC V2.10 B1813,2013-01-17 06:43:00,
2013-01-17 01:48:00,25.9,25.2,29.83,WSW,244,0.0,0.0,97,0.00,,,0.00,LWC V2.10 B1813,2013-01-17 06:48:00,
2013-01-17 01:58:00,25.5,24.8,29.83,WSW,244,0.0,0.0,97,0.00,,,0.00,LWC V2.10 B1813,2013-01-17 06:58:00,
2013-01-17 02:03:00,25.4,24.7,29.83,WSW,248,0.0,0.0,97,0.00,,,0.00,LWC V2.10 B1813,2013-01-17 07:03:00,
2013-01-17 02:08:00,25.2,24.5,29.83,West,280,0.0,0.0,97,0.00,,,0.00,LWC V2.10 B1813,2013-01-17 07:08:00,
2013-01-17 02:13:00,25.0,24.3,29.84,West,279,0.0,0.0,97,0.00,,,0.00,LWC V2.10 B1813,2013-01-17 07:13:00,
2013-01-17 02:18:00,24.7,23.7,29.83,West,279,0.0,0.0,96,0.00,,,0.00,LWC V2.10 B1813,2013-01-17 07:18:00,
2013-01-17 02:23:00,24.6,23.6,29.83,West,280,0.0,0.0,96,0.00,,,0.00,LWC V2.10 B1813,2013-01-17 07:23:00,
2013-01-17 02:28:00,24.5,23.5,29.83,West,280,0.0,0.0,96,0.00,,,0.00,LWC V2.10 B1813,2013-01-17 07:28:00,
2013-01-17 02:33:00,24.4,23.7,29.83,West,279,0.0,0.0,97,0.00,,,0.00,LWC V2.10 B1813,2013-01-17 07:33:00,
2013-01-17 02:38:00,24.3,23.6,29.83,West,279,0.0,0.0,97,0.00,,,0.00,LWC V2.10 B1813,2013-01-17 07:38:00,
2013-01-17 02:43:00,24.2,23.5,29.83,West,279,0.0,0.0,97,0.00,,,0.00,LWC V2.10 B1813,2013-01-17 07:43:00,
2013-01-17 02:48:00,24.0,23.0,29.82,West,279,0.0,0.0,96,0.00,,,0.00,LWC V2.10 B1813,2013-01-17 07:48:00,
2013-01-17 02:53:00,23.9,22.9,29.83,WNW,286,0.0,0.0,96,0.00,,,0.00,LWC V2.10 B1813,2013-01-17 07:53:00,
2013-01-17 02:58:00,23.7,22.7,29.82,WNW,286,0.0,0.0,96,0.00,,,0.00,LWC V2.10 B1813,2013-01-17 07:58:00,
2013-01-17 03:03:00,23.6,22.6,29.82,WNW,286,0.0,0.0,96,0.00,,,0.00,LWC V2.10 B1813,2013-01-17 08:03:00,
2013-01-17 03:08:00,23.5,22.5,29.82,WNW,286,0.0,0.0,96,0.00,,,0.00,LWC V2.10 B1813,2013-01-17 08:08:00,
2013-01-17 03:13:00,23.4,22.4,29.82,WNW,286,0.0,0.0,96,0.00,,,0.00,LWC V2.10 B1813,2013-01-17 08:13:00,
2013-01-17 03:18:00,23.3,22.3,29.82,WNW,286,0.0,0.0,96,0.00,,,0.00,LWC V2.10 B1813,2013-01-17 08:18:00,
2013-01-17 03:23:00,23.2,22.2,29.82,WNW,286,0.0,0.0,96,0.00,,,0.00,LWC V2.10 B1813,2013-01-17 08:23:00,
2013-01-17 03:28:00,23.5,22.8,29.82,WNW,286,0.0,0.0,97,0.00,,,0.00,LWC V2.10 B1813,2013-01-17 08:28:00,
2013-01-17 03:33:00,23.6,22.9,29.81,WNW,286,0.0,0.0,97,0.00,,,0.00,LWC V2.10 B1813,2013-01-17 08:33:00,
2013-01-17 03:38:00,23.8,23.1,29.81,WNW,286,0.0,0.0,97,0.00,,,0.00,LWC V2.10 B1813,2013-01-17 08:38:00,
2013-01-17 03:43:00,23.9,23.2,29.82,WNW,286,0.0,0.0,97,0.00,,,0.00,LWC V2.10 B1813,2013-01-17 08:43:00,
2013-01-17 03:48:00,24.1,23.4,29.81,WNW,286,0.0,0.0,97,0.00,,,0.00,LWC V2.10 B1813,2013-01-17 08:48:00,
2013-01-17 03:53:00,24.2,23.5,29.81,WNW,286,0.0,0.0,97,0.00,,,0.00,LWC V2.10 B1813,2013-01-17 08:53:00,
2013-01-17 03:58:00,24.2,23.5,29.82,WNW,286,0.0,0.0,97,0.00,,,0.00,LWC V2.10 B1813,2013-01-17 08:58:00,
2013-01-17 04:03:00,24.3,23.6,29.82,WNW,286,0.0,0.0,97,0.00,,,0.00,LWC V2.10 B1813,2013-01-17 09:03:00,
2013-01-17 04:08:00,24.3,23.6,29.82,West,275,0.0,0.0,97,0.00,,,0.00,LWC V2.10 B1813,2013-01-17 09:08:00,
2013-01-17 04:13:00,24.3,23.6,29.82,West,272,0.0,0.0,97,0.00,,,0.00,LWC V2.10 B1813,2013-01-17 09:13:00,
2013-01-17 04:18:00,24.3,23.6,29.82,WNW,287,0.0,0.0,97,0.00,,,0.00,LWC V2.10 B1813,2013-01-17 09:18:00,
2013-01-17 04:23:00,24.2,23.5,29.83,NW,313,0.0,0.0,97,0.00,,,0.00,LWC V2.10 B1813,2013-01-17 09:23:00,
2013-01-17 04:28:00,24.2,23.5,29.83,NW,313,0.0,0.0,97,0.00,,,0.00,LWC V2.10 B1813,2013-01-17 09:28:00,
2013-01-17 04:33:00,24.5,23.8,29.83,WNW,290,0.0,0.0,97,0.00,,,0.00,LWC V2.10 B1813,2013-01-17 09:33:00,
2013-01-17 04:38:00,24.7,24.0,29.83,WNW,298,0.0,0.0,97,0.00,,,0.00,LWC V2.10 B1813,2013-01-17 09:38:00,
2013-01-17 04:43:00,25.0,24.3,29.83,WNW,300,0.0,0.0,97,0.00,,,0.00,LWC V2.10 B1813,2013-01-17 09:43:00,
2013-01-17 04:48:00,25.2,24.5,29.83,WNW,293,0.0,0.0,97,0.00,,,0.00,LWC V2.10 B1813,2013-01-17 09:48:00,
2013-01-17 04:53:00,25.4,24.7,29.83,WNW,291,0.0,0.0,97,0.00,,,0.00,LWC V2.10 B1813,2013-01-17 09:53:00,
2013-01-17 04:58:00,25.5,24.8,29.83,WNW,291,0.0,0.0,97,0.00,,,0.00,LWC V2.10 B1813,2013-01-17 09:58:00,
2013-01-17 05:03:00,25.4,24.7,29.83,West,266,0.0,0.0,97,0.00,,,0.00,LWC V2.10 B1813,2013-01-17 10:03:00,
2013-01-17 05:08:00,25.3,24.6,29.83,West,266,0.0,0.0,97,0.00,,,0.00,LWC V2.10 B1813,2013-01-17 10:08:00,
2013-01-17 05:13:00,25.3,24.6,29.83,West,266,0.0,0.0,97,0.00,,,0.00,LWC V2.10 B1813,2013-01-17 10:13:00,
2013-01-17 05:18:00,25.3,24.6,29.83,West,268,0.0,0.0,97,0.00,,,0.00,LWC V2.10 B1813,2013-01-17 10:18:00,
2013-01-17 05:23:00,25.4,24.7,29.84,West,268,0.0,0.0,97,0.00,,,0.00,LWC V2.10 B1813,2013-01-17 10:23:00,
2013-01-17 05:28:00,25.5,24.8,29.84,West,268,0.0,0.0,97,0.00,,,0.00,LWC V2.10 B1813,2013-01-17 10:28:00,
2013-01-17 05:33:00,25.5,24.8,29.83,West,266,0.0,0.0,97,0.00,,,0.00,LWC V2.10 B1813,2013-01-17 10:33:00,
2013-01-17 05:38:00,25.7,25.0,29.83,West,268,0.0,0.0,97,0.00,,,0.00,LWC V2.10 B1813,2013-01-17 10:38:00,
2013-01-17 05:43:00,25.8,25.1,29.84,West,268,0.0,0.0,97,0.00,,,0.00,LWC V2.10 B1813,2013-01-17 10:43:00,
2013-01-17 05:48:00,25.9,25.2,29.84,West,268,0.0,0.0,97,0.00,,,0.00,LWC V2.10 B1813,2013-01-17 10:48:00,
2013-01-17 05:53:00,25.9,25.2,29.84,West,268,0.0,0.0,97,0.00,,,0.00,LWC V2.10 B1813,2013-01-17 10:53:00,
2013-01-17 05:58:00,26.0,25.3,29.84,West,268,0.0,0.0,97,0.00,,,0.00,LWC V2.10 B1813,2013-01-17 10:58:00,
2013-01-17 06:03:00,26.0,25.3,29.84,West,266,0.0,0.0,97,0.00,,,0.00,LWC V2.10 B1813,2013-01-17 11:03:00,
2013-01-17 06:08:00,26.1,25.4,29.84,West,266,0.0,0.0,97,0.00,,,0.00,LWC V2.10 B1813,2013-01-17 11:08:00,
2013-01-17 06:13:00,26.2,25.5,29.84,West,267,0.0,0.0,97,0.00,,,0.00,LWC V2.10 B1813,2013-01-17 11:13:00,
2013-01-17 06:18:00,26.4,25.9,29.84,West,266,0.0,0.0,98,0.00,,,0.00,LWC V2.10 B1813,2013-01-17 11:18:00,
2013-01-17 06:23:00,26.5,26.0,29.85,West,266,0.0,0.0,98,0.00,,,0.00,LWC V2.10 B1813,2013-01-17 11:23:00,
2013-01-17 06:28:00,26.5,25.8,29.85,West,265,0.0,0.0,97,0.00,,,0.00,LWC V2.10 B1813,2013-01-17 11:28:00,
2013-01-17 06:33:00,26.6,26.1,29.85,West,268,0.0,0.0,98,0.00,,,0.00,LWC V2.10 B1813,2013-01-17 11:33:00,
2013-01-17 06:38:00,26.7,26.2,29.85,West,268,0.0,0.0,98,0.00,,,0.00,LWC V2.10 B1813,2013-01-17 11:38:00,
2013-01-17 06:43:00,26.9,26.4,29.86,West,267,0.0,0.0,98,0.00,,,0.00,LWC V2.10 B1813,2013-01-17 11:43:00,
2013-01-17 06:48:00,26.9,26.4,29.86,West,266,0.0,0.0,98,0.00,,,0.00,LWC V2.10 B1813,2013-01-17 11:48:00,
2013-01-17 06:53:00,27.0,26.5,29.86,West,266,0.0,0.0,98,0.00,,,0.00,LWC V2.10 B1813,2013-01-17 11:53:00,
2013-01-17 06:58:00,27.0,26.5,29.86,NW,317,0.0,0.0,98,0.00,,,0.00,LWC V2.10 B1813,2013-01-17 11:58:00,
2013-01-17 07:03:00,27.1,26.6,29.87,NW,317,0.0,0.0,98,0.00,,,0.00,LWC V2.10 B1813,2013-01-17 12:03:00,
2013-01-17 07:08:00,27.2,26.7,29.86,NW,316,0.0,0.0,98,0.00,,,0.00,LWC V2.10 B1813,2013-01-17 12:08:00,
2013-01-17 07:13:00,27.3,26.8,29.87,NW,318,0.0,0.0,98,0.00,,,0.00,LWC V2.10 B1813,2013-01-17 12:13:00,
2013-01-17 07:18:00,27.3,26.8,29.88,NW,318,0.0,0.0,98,0.00,,,0.00,LWC V2.10 B1813,2013-01-17 12:18:00,
2013-01-17 07:23:00,27.3,26.8,29.87,NNE,20,0.0,0.0,98,0.00,,,0.00,LWC V2.10 B1813,2013-01-17 12:23:00,
2013-01-17 07:28:00,27.3,26.8,29.87,NNE,21,0.0,0.0,98,0.00,,,0.00,LWC V2.10 B1813,2013-01-17 12:28:00,
2013-01-17 07:33:00,27.4,26.9,29.88,NNE,21,0.0,0.0,98,0.00,,,0.00,LWC V2.10 B1813,2013-01-17 12:33:00,
2013-01-17 07:38:00,27.5,27.0,29.88,NNE,21,0.0,0.0,98,0.00,,,0.00,LWC V2.10 B1813,2013-01-17 12:38:00,
2013-01-17 07:43:00,27.6,27.1,29.88,NNE,21,0.0,0.0,98,0.00,,,0.00,LWC V2.10 B1813,2013-01-17 12:43:00,
2013-01-17 07:48:00,27.8,27.3,29.88,NNE,21,0.0,0.0,98,0.00,,,0.00,LWC V2.10 B1813,2013-01-17 12:48:00,
2013-01-17 07:53:00,28.1,27.6,29.88,NNE,20,0.0,0.0,98,0.00,,,0.00,LWC V2.10 B1813,2013-01-17 12:53:00,
2013-01-17 07:58:00,28.3,27.8,29.89,NNE,20,0.0,0.0,98,0.00,,,0.00,LWC V2.10 B1813,2013-01-17 12:58:00,
2013-01-17 08:03:00,28.5,28.0,29.89,NNE,21,0.0,0.0,98,0.00,,,0.00,LWC V2.10 B1813,2013-01-17 13:03:00,
2013-01-17 08:08:00,28.8,28.3,29.90,North,7,0.0,0.0,98,0.00,,,0.00,LWC V2.10 B1813,2013-01-17 13:08:00,
2013-01-17 08:13:00,28.9,28.4,29.90,North,7,0.0,0.0,98,0.00,,,0.00,LWC V2.10 B1813,2013-01-17 13:13:00,
2013-01-17 08:18:00,29.3,28.8,29.90,North,8,0.0,0.0,98,0.00,,,0.00,LWC V2.10 B1813,2013-01-17 13:18:00,
2013-01-17 08:23:00,29.6,29.1,29.91,North,8,0.0,0.0,98,0.00,,,0.00,LWC V2.10 B1813,2013-01-17 13:23:00,
2013-01-17 08:28:00,29.8,29.3,29.91,North,8,0.0,0.0,98,0.00,,,0.00,LWC V2.10 B1813,2013-01-17 13:28:00,
2013-01-17 08:33:00,29.9,29.4,29.91,South,175,0.0,0.0,98,0.00,,,0.00,LWC V2.10 B1813,2013-01-17 13:33:00,
2013-01-17 08:38:00,30.1,29.4,29.91,ESE,111,0.0,0.0,97,0.00,,,0.00,LWC V2.10 B1813,2013-01-17 13:38:00,
2013-01-17 08:43:00,30.4,29.9,29.91,ESE,111,0.0,0.0,98,0.00,,,0.00,LWC V2.10 B1813,2013-01-17 13:43:00,
2013-01-17 08:48:00,30.7,30.0,29.91,ESE,110,0.0,0.0,97,0.00,,,0.00,LWC V2.10 B1813,2013-01-17 13:48:00,
2013-01-17 08:53:00,31.6,31.1,29.91,ESE,111,0.0,0.0,98,0.00,,,0.00,LWC V2.10 B1813,2013-01-17 13:53:00,
2013-01-17 08:58:00,32.3,31.5,29.91,ESE,110,0.0,0.0,97,0.00,,,0.00,LWC V2.10 B1813,2013-01-17 13:58:00,
2013-01-17 09:03:00,32.8,31.8,29.91,SSE,168,0.0,0.0,96,0.00,,,0.00,LWC V2.10 B1813,2013-01-17 14:03:00,
2013-01-17 09:13:00,33.6,32.1,29.91,ESE,123,0.0,0.0,94,0.00,,,0.00,LWC V2.10 B1813,2013-01-17 14:13:00,
2013-01-17 09:18:00,33.8,32.0,29.91,WSW,256,0.0,0.0,93,0.00,,,0.00,LWC V2.10 B1813,2013-01-17 14:18:00,
2013-01-17 09:23:00,34.5,32.7,29.91,WSW,256,0.0,0.0,93,0.00,,,0.00,LWC V2.10 B1813,2013-01-17 14:23:00,
2013-01-17 09:28:00,34.6,32.2,29.91,SE,125,0.0,0.0,91,0.00,,,0.00,LWC V2.10 B1813,2013-01-17 14:28:00,
2013-01-17 09:33:00,34.6,32.0,29.91,SE,133,0.0,0.0,90,0.00,,,0.00,LWC V2.10 B1813,2013-01-17 14:33:00,
2013-01-17 09:38:00,34.7,31.8,29.91,WNW,291,0.0,0.0,89,0.00,,,0.00,LWC V2.10 B1813,2013-01-17 14:38:00,
2013-01-17 09:43:00,34.6,32.2,29.91,SSE,159,0.0,0.0,91,0.00,,,0.00,LWC V2.10 B1813,2013-01-17 14:43:00,
2013-01-17 09:48:00,34.6,32.5,29.91,West,259,0.0,0.0,92,0.00,,,0.00,LWC V2.10 B1813,2013-01-17 14:48:00,
2013-01-17 09:53:00,34.8,32.4,29.91,South,183,0.0,0.0,91,0.00,,,0.00,LWC V2.10 B1813,2013-01-17 14:53:00,
2013-01-17 09:58:00,35.2,33.1,29.91,South,187,0.0,0.0,92,0.00,,,0.00,LWC V2.10 B1813,2013-01-17 14:58:00,
2013-01-17 10:03:00,35.0,32.9,29.91,South,185,0.0,0.0,92,0.00,,,0.00,LWC V2.10 B1813,2013-01-17 15:03:00,
2013-01-17 10:08:00,34.9,32.8,29.90,SSW,192,0.0,0.0,92,0.00,,,0.00,LWC V2.10 B1813,2013-01-17 15:08:00,
2013-01-17 10:13:00,34.7,32.9,29.91,WSW,239,0.0,0.0,93,0.00,,,0.00,LWC V2.10 B1813,2013-01-17 15:13:00,
2013-01-17 10:18:00,34.5,32.7,29.91,South,191,0.0,0.0,93,0.00,,,0.00,LWC V2.10 B1813,2013-01-17 15:18:00,
2013-01-17 10:23:00,34.3,32.5,29.91,South,185,1.0,2.0,93,0.00,,,0.00,LWC V2.10 B1813,2013-01-17 15:23:00,
2013-01-17 10:28:00,34.3,32.5,29.92,West,259,0.0,1.0,93,0.00,,,0.00,LWC V2.10 B1813,2013-01-17 15:28:00,
2013-01-17 10:33:00,34.2,32.4,29.92,South,177,2.0,2.0,93,0.00,,,0.00,LWC V2.10 B1813,2013-01-17 15:33:00,
2013-01-17 10:38:00,34.1,32.6,29.92,SSW,193,0.0,1.0,94,0.00,,,0.00,LWC V2.10 B1813,2013-01-17 15:38:00,
2013-01-17 10:43:00,34.1,32.6,29.92,ESE,123,2.0,2.0,94,0.00,,,0.00,LWC V2.10 B1813,2013-01-17 15:43:00,
2013-01-17 10:48:00,34.1,32.6,29.93,SW,222,2.0,4.0,94,0.00,,,0.00,LWC V2.10 B1813,2013-01-17 15:48:00,
2013-01-17 10:53:00,34.2,32.7,29.92,SW,224,2.0,5.0,94,0.00,,,0.00,LWC V2.10 B1813,2013-01-17 15:53:00,
2013-01-17 10:58:00,34.5,32.7,29.93,ESE,106,0.0,0.0,93,0.00,,,0.00,LWC V2.10 B1813,2013-01-17 15:58:00,
2013-01-17 11:03:00,34.5,33.0,29.93,South,173,1.0,2.0,94,0.00,,,0.00,LWC V2.10 B1813,2013-01-17 16:03:00,
2013-01-17 11:08:00,34.5,33.0,29.92,South,187,0.0,1.0,94,0.00,,,0.00,LWC V2.10 B1813,2013-01-17 16:08:00,
2013-01-17 11:13:00,34.6,33.1,29.93,SE,138,0.0,0.0,94,0.00,,,0.00,LWC V2.10 B1813,2013-01-17 16:13:00,
2013-01-17 11:18:00,34.8,33.3,29.93,SW,217,1.0,2.0,94,0.00,,,0.00,LWC V2.10 B1813,2013-01-17 16:18:00,
2013-01-17 11:23:00,34.9,33.1,29.93,West,268,9.0,9.0,93,0.00,,,0.00,LWC V2.10 B1813,2013-01-17 16:23:00,
2013-01-17 11:28:00,35.3,32.4,29.93,NW,313,1.0,3.0,89,0.00,,,0.00,LWC V2.10 B1813,2013-01-17 16:28:00,
2013-01-17 11:33:00,35.5,32.0,29.93,West,265,2.0,2.0,87,0.00,,,0.00,LWC V2.10 B1813,2013-01-17 16:33:00,
2013-01-17 11:38:00,35.6,32.4,29.93,NNW,343,5.0,6.0,88,0.00,,,0.00,LWC V2.10 B1813,2013-01-17 16:38:00,
2013-01-17 11:43:00,35.5,31.7,29.93,NNW,328,4.0,7.0,86,0.00,,,0.00,LWC V2.10 B1813,2013-01-17 16:43:00,
2013-01-17 11:48:00,35.6,31.5,29.93,NW,315,4.0,7.0,85,0.00,,,0.00,LWC V2.10 B1813,2013-01-17 16:48:00,
2013-01-17 11:53:00,35.7,31.9,29.93,ENE,78,3.0,4.0,86,0.00,,,0.00,LWC V2.10 B1813,2013-01-17 16:53:00,
2013-01-17 11:58:00,35.8,31.7,29.93,NW,309,4.0,6.0,85,0.00,,,0.00,LWC V2.10 B1813,2013-01-17 16:58:00,
2013-01-17 12:03:00,36.0,31.6,29.93,WNW,301,0.0,4.0,84,0.00,,,0.00,LWC V2.10 B1813,2013-01-17 17:03:00,
2013-01-17 12:08:00,36.1,31.7,29.93,WSW,246,0.0,5.0,84,0.00,,,0.00,LWC V2.10 B1813,2013-01-17 17:08:00,
2013-01-17 12:13:00,36.2,31.8,29.92,West,265,4.0,6.0,84,0.00,,,0.01,LWC V2.10 B1813,2013-01-17 17:13:00,
2013-01-17 12:18:00,36.2,31.8,29.92,East,101,3.0,8.0,84,0.00,,,0.01,LWC V2.10 B1813,2013-01-17 17:18:00,
2013-01-17 12:23:00,36.3,31.6,29.92,NW,322,6.0,7.0,83,0.00,,,0.01,LWC V2.10 B1813,2013-01-17 17:23:00,
2013-01-17 12:28:00,36.3,31.6,29.93,WNW,301,2.0,6.0,83,0.00,,,0.01,LWC V2.10 B1813,2013-01-17 17:28:00,
2013-01-17 12:33:00,36.3,31.9,29.93,West,259,2.0,3.0,84,0.00,,,0.01,LWC V2.10 B1813,2013-01-17 17:33:00,
2013-01-17 12:38:00,36.5,32.1,29.93,West,270,0.0,1.0,84,0.00,,,0.01,LWC V2.10 B1813,2013-01-17 17:38:00,
2013-01-17 12:43:00,36.7,32.3,29.93,West,266,1.0,4.0,84,0.00,,,0.01,LWC V2.10 B1813,2013-01-17 17:43:00,
2013-01-17 12:48:00,36.4,31.4,29.93,NW,320,1.0,6.0,82,0.00,,,0.01,LWC V2.10 B1813,2013-01-17 17:48:00,
2013-01-17 12:53:00,36.4,31.4,29.93,NW,325,5.0,6.0,82,0.00,,,0.01,LWC V2.10 B1813,2013-01-17 17:53:00,
2013-01-17 12:58:00,36.4,32.3,29.94,WNW,302,1.0,1.0,85,0.00,,,0.02,LWC V2.10 B1813,2013-01-17 17:58:00,
2013-01-17 13:03:00,36.4,31.4,29.94,WNW,300,1.0,3.0,82,0.00,,,0.02,LWC V2.10 B1813,2013-01-17 18:03:00,
2013-01-17 13:08:00,36.4,30.8,29.94,West,280,1.0,6.0,80,0.04,,,0.03,LWC V2.10 B1813,2013-01-17 18:08:00,
2013-01-17 13:13:00,36.6,31.9,29.94,NW,305,3.0,5.0,83,0.04,,,0.03,LWC V2.10 B1813,2013-01-17 18:13:00,
2013-01-17 13:18:00,36.6,31.3,29.94,NW,322,3.0,8.0,81,0.04,,,0.03,LWC V2.10 B1813,2013-01-17 18:18:00,
2013-01-17 13:23:00,36.7,31.1,29.94,NNW,332,4.0,5.0,80,0.04,,,0.04,LWC V2.10 B1813,2013-01-17 18:23:00,
2013-01-17 13:28:00,36.6,31.0,29.95,North,4,4.0,5.0,80,0.04,,,0.04,LWC V2.10 B1813,2013-01-17 18:28:00,
2013-01-17 13:33:00,36.3,30.7,29.95,NW,325,13.0,19.0,80,0.04,,,0.04,LWC V2.10 B1813,2013-01-17 18:33:00,
2013-01-17 13:38:00,36.2,31.5,29.95,North,352,4.0,6.0,83,0.04,,,0.05,LWC V2.10 B1813,2013-01-17 18:38:00,
2013-01-17 13:43:00,36.0,31.3,29.96,West,262,5.0,6.0,83,0.04,,,0.05,LWC V2.10 B1813,2013-01-17 18:43:00,
2013-01-17 13:48:00,35.9,31.2,29.96,NNE,29,4.0,5.0,83,0.05,,,0.06,LWC V2.10 B1813,2013-01-17 18:48:00,
2013-01-17 13:53:00,35.9,31.2,29.96,NNW,339,0.0,4.0,83,0.05,,,0.06,LWC V2.10 B1813,2013-01-17 18:53:00,
2013-01-17 13:58:00,35.9,31.2,29.96,West,279,3.0,7.0,83,0.06,,,0.07,LWC V2.10 B1813,2013-01-17 18:58:00,
2013-01-17 14:03:00,35.9,31.2,29.97,ENE,69,2.0,7.0,83,0.06,,,0.07,LWC V2.10 B1813,2013-01-17 19:03:00,
2013-01-17 14:08:00,35.8,30.9,29.96,NW,309,1.0,2.0,82,0.06,,,0.08,LWC V2.10 B1813,2013-01-17 19:08:00,
2013-01-17 14:13:00,35.6,30.4,29.96,NW,315,4.0,9.0,81,0.06,,,0.08,LWC V2.10 B1813,2013-01-17 19:13:00,
2013-01-17 14:18:00,35.3,29.1,29.97,WNW,291,4.0,7.0,78,0.06,,,0.09,LWC V2.10 B1813,2013-01-17 19:18:00,
2013-01-17 14:23:00,35.0,28.8,29.97,NNW,332,4.0,8.0,78,0.06,,,0.09,LWC V2.10 B1813,2013-01-17 19:23:00,
2013-01-17 14:28:00,34.8,28.3,29.97,NNW,328,3.0,8.0,77,0.05,,,0.10,LWC V2.10 B1813,2013-01-17 19:28:00,
2013-01-17 14:33:00,34.7,28.6,29.97,NNW,339,2.0,8.0,78,0.05,,,0.10,LWC V2.10 B1813,2013-01-17 19:33:00,
2013-01-17 14:38:00,34.7,27.3,29.97,WNW,286,5.0,7.0,74,0.05,,,0.10,LWC V2.10 B1813,2013-01-17 19:38:00,
2013-01-17 14:43:00,34.6,26.2,29.97,North,9,6.0,8.0,71,0.04,,,0.11,LWC V2.10 B1813,2013-01-17 19:43:00,
2013-01-17 14:48:00,34.5,26.8,29.97,NNW,341,2.0,4.0,73,0.04,,,0.11,LWC V2.10 B1813,2013-01-17 19:48:00,
2013-01-17 14:53:00,34.4,26.3,29.98,NW,323,3.0,6.0,72,0.04,,,0.11,LWC V2.10 B1813,2013-01-17 19:53:00,
2013-01-17 14:58:00,34.3,25.5,29.98,NW,318,7.0,12.0,70,0.04,,,0.11,LWC V2.10 B1813,2013-01-17 19:58:00,
2013-01-17 15:03:00,34.2,26.1,29.99,NW,320,6.0,8.0,72,0.00,,,0.11,LWC V2.10 B1813,2013-01-17 20:03:00,
2013-01-17 15:08:00,34.1,25.7,29.99,NNE,12,2.0,3.0,71,0.00,,,0.12,LWC V2.10 B1813,2013-01-17 20:08:00,
2013-01-17 15:13:00,34.0,24.9,30.00,NW,325,3.0,6.0,69,0.00,,,0.12,LWC V2.10 B1813,2013-01-17 20:13:00,
2013-01-17 15:18:00,33.8,25.4,30.00,North,352,3.0,5.0,71,0.00,,,0.12,LWC V2.10 B1813,2013-01-17 20:18:00,
2013-01-17 15:23:00,33.7,26.0,30.00,NW,321,2.0,4.0,73,0.00,,,0.12,LWC V2.10 B1813,2013-01-17 20:23:00,
2013-01-17 15:28:00,33.5,27.1,30.00,WNW,289,2.0,3.0,77,0.00,,,0.12,LWC V2.10 B1813,2013-01-17 20:28:00,
2013-01-17 15:33:00,33.4,26.3,30.00,NW,318,0.0,1.0,75,0.00,,,0.12,LWC V2.10 B1813,2013-01-17 20:33:00,
2013-01-17 15:38:00,33.2,25.8,30.00,WSW,255,2.0,2.0,74,0.00,,,0.12,LWC V2.10 B1813,2013-01-17 20:38:00,
2013-01-17 15:43:00,33.1,25.4,30.01,NNW,335,3.0,4.0,73,0.00,,,0.12,LWC V2.10 B1813,2013-01-17 20:43:00,
2013-01-17 15:48:00,32.9,24.9,30.01,NW,305,0.0,3.0,72,0.00,,,0.12,LWC V2.10 B1813,2013-01-17 20:48:00,
2013-01-17 15:53:00,32.8,24.8,30.01,NW,310,1.0,2.0,72,0.00,,,0.12,LWC V2.10 B1813,2013-01-17 20:53:00,
2013-01-17 15:58:00,32.5,24.2,30.00,North,2,5.0,8.0,71,0.00,,,0.12,LWC V2.10 B1813,2013-01-17 20:58:00,
2013-01-17 16:03:00,32.3,23.3,30.00,North,0,2.0,5.0,69,0.00,,,0.13,LWC V2.10 B1813,2013-01-17 21:03:00,
2013-01-17 16:08:00,32.1,23.1,30.00,WNW,290,3.0,6.0,69,0.00,,,0.13,LWC V2.10 B1813,2013-01-17 21:08:00,
2013-01-17 16:13:00,31.9,23.2,30.00,NNE,21,3.0,7.0,70,0.00,,,0.13,LWC V2.10 B1813,2013-01-17 21:13:00,
2013-01-17 16:18:00,31.7,22.4,30.01,WNW,303,6.0,12.0,68,0.00,,,0.13,LWC V2.10 B1813,2013-01-17 21:18:00,
2013-01-17 16:23:00,31.4,22.4,30.01,North,355,2.0,8.0,69,0.00,,,0.13,LWC V2.10 B1813,2013-01-17 21:23:00,
2013-01-17 16:28:00,31.2,21.9,30.01,North,359,4.0,7.0,68,0.00,,,0.13,LWC V2.10 B1813,2013-01-17 21:28:00,
2013-01-17 16:33:00,31.0,22.0,30.01,NW,323,11.0,12.0,69,0.00,,,0.13,LWC V2.10 B1813,2013-01-17 21:33:00,
2013-01-17 16:38:00,30.7,22.1,30.02,NW,313,4.0,6.0,70,0.00,,,0.13,LWC V2.10 B1813,2013-01-17 21:38:00,
2013-01-17 16:43:00,30.4,21.8,30.02,NNW,348,2.0,5.0,70,0.00,,,0.13,LWC V2.10 B1813,2013-01-17 21:43:00,
2013-01-17 16:48:00,30.3,21.0,30.02,NNW,334,2.0,8.0,68,0.00,,,0.13,LWC V2.10 B1813,2013-01-17 21:48:00,
2013-01-17 16:53:00,30.1,21.5,30.02,WNW,286,4.0,4.0,70,0.00,,,0.13,LWC V2.10 B1813,2013-01-17 21:53:00,
2013-01-17 16:58:00,30.0,21.1,30.02,NW,318,8.0,10.0,69,0.00,,,0.13,LWC V2.10 B1813,2013-01-17 21:58:00,
2013-01-17 17:03:00,29.9,21.0,30.03,WNW,294,5.0,6.0,69,0.00,,,0.13,LWC V2.10 B1813,2013-01-17 22:03:00,
2013-01-17 17:08:00,29.9,20.3,30.03,NW,308,6.0,6.0,67,0.00,,,0.13,LWC V2.10 B1813,2013-01-17 22:08:00,
2013-01-17 17:13:00,29.8,20.9,30.03,NW,308,1.0,2.0,69,0.00,,,0.13,LWC V2.10 B1813,2013-01-17 22:13:00,
2013-01-17 17:18:00,29.7,20.8,30.04,NNW,327,2.0,4.0,69,0.00,,,0.13,LWC V2.10 B1813,2013-01-17 22:18:00,
2013-01-17 17:23:00,29.6,20.0,30.04,West,277,2.0,7.0,67,0.00,,,0.13,LWC V2.10 B1813,2013-01-17 22:23:00,
2013-01-17 17:28:00,29.4,19.8,30.04,NW,320,1.0,5.0,67,0.00,,,0.13,LWC V2.10 B1813,2013-01-17 22:28:00,
2013-01-17 17:33:00,29.2,19.6,30.05,WNW,291,7.0,9.0,67,0.00,,,0.13,LWC V2.10 B1813,2013-01-17 22:33:00,
2013-01-17 17:38:00,29.2,19.3,30.05,NNW,339,5.0,5.0,66,0.00,,,0.13,LWC V2.10 B1813,2013-01-17 22:38:00,
2013-01-17 17:43:00,29.0,19.4,30.05,NW,317,6.0,10.0,67,0.00,,,0.13,LWC V2.10 B1813,2013-01-17 22:43:00,
2013-01-17 17:48:00,28.9,19.0,30.05,WNW,301,6.0,9.0,66,0.00,,,0.13,LWC V2.10 B1813,2013-01-17 22:48:00,
2013-01-17 17:53:00,28.8,18.9,30.05,NNW,347,2.0,10.0,66,0.00,,,0.13,LWC V2.10 B1813,2013-01-17 22:53:00,
2013-01-17 17:58:00,28.6,18.0,30.05,NNW,334,2.0,8.0,64,0.00,,,0.13,LWC V2.10 B1813,2013-01-17 22:58:00,
2013-01-17 18:03:00,28.5,18.3,30.05,North,2,6.0,8.0,65,0.00,,,0.13,LWC V2.10 B1813,2013-01-17 23:03:00,
2013-01-17 18:08:00,28.5,17.5,30.05,North,356,7.0,9.0,63,0.00,,,0.13,LWC V2.10 B1813,2013-01-17 23:08:00,
2013-01-17 18:13:00,28.3,17.3,30.05,WNW,282,4.0,8.0,63,0.00,,,0.13,LWC V2.10 B1813,2013-01-17 23:13:00,
2013-01-17 18:18:00,28.3,17.3,30.05,NW,324,4.0,6.0,63,0.00,,,0.13,LWC V2.10 B1813,2013-01-17 23:18:00,
2013-01-17 18:23:00,28.1,18.6,30.06,NW,310,1.0,2.0,67,0.00,,,0.13,LWC V2.10 B1813,2013-01-17 23:23:00,
2013-01-17 18:28:00,27.9,19.4,30.07,NW,318,2.0,3.0,70,0.00,,,0.13,LWC V2.10 B1813,2013-01-17 23:28:00,
2013-01-17 18:33:00,27.8,18.3,30.07,North,353,2.0,4.0,67,0.00,,,0.13,LWC V2.10 B1813,2013-01-17 23:33:00,
2013-01-17 18:38:00,27.7,18.5,30.08,NW,321,1.0,2.0,68,0.00,,,0.13,LWC V2.10 B1813,2013-01-17 23:38:00,
2013-01-17 18:43:00,27.5,18.3,30.08,North,4,2.0,4.0,68,0.00,,,0.13,LWC V2.10 B1813,2013-01-17 23:43:00,
2013-01-17 18:48:00,27.4,18.6,30.08,NE,41,0.0,1.0,69,0.00,,,0.13,LWC V2.10 B1813,2013-01-17 23:48:00,
2013-01-17 18:53:00,27.3,18.8,30.08,NW,305,1.0,1.0,70,0.00,,,0.13,LWC V2.10 B1813,2013-01-17 23:53:00,
2013-01-17 18:58:00,27.2,18.7,30.08,NNE,21,0.0,0.0,70,0.00,,,0.13,LWC V2.10 B1813,2013-01-17 23:58:00,
2013-01-17 19:03:00,27.1,18.3,30.07,East,89,1.0,2.0,69,0.00,,,0.13,LWC V2.10 B1813,2013-01-18 00:03:00,
2013-01-17 19:08:00,27.1,18.3,30.07,SE,144,0.0,1.0,69,0.00,,,0.13,LWC V2.10 B1813,2013-01-18 00:08:00,
2013-01-17 19:13:00,26.9,17.8,30.08,SSE,168,0.0,1.0,68,0.00,,,0.13,LWC V2.10 B1813,2013-01-18 00:13:00,
2013-01-17 19:18:00,26.8,18.0,30.08,SSW,208,0.0,0.0,69,0.00,,,0.13,LWC V2.10 B1813,2013-01-18 00:18:00,
2013-01-17 19:23:00,26.7,18.3,30.08,WNW,290,1.0,1.0,70,0.00,,,0.13,LWC V2.10 B1813,2013-01-18 00:23:00,
2013-01-17 19:28:00,26.7,17.6,30.08,NW,310,1.0,3.0,68,0.00,,,0.13,LWC V2.10 B1813,2013-01-18 00:28:00,
2013-01-17 19:33:00,26.6,18.2,30.08,North,350,3.0,4.0,70,0.00,,,0.13,LWC V2.10 B1813,2013-01-18 00:33:00,
2013-01-17 19:38:00,26.6,18.2,30.08,WNW,284,3.0,3.0,70,0.00,,,0.13,LWC V2.10 B1813,2013-01-18 00:38:00,
2013-01-17 19:43:00,26.5,18.1,30.08,NNW,343,1.0,3.0,70,0.00,,,0.13,LWC V2.10 B1813,2013-01-18 00:43:00,
2013-01-17 19:48:00,26.5,17.7,30.09,West,275,2.0,3.0,69,0.00,,,0.13,LWC V2.10 B1813,2013-01-18 00:48:00,
2013-01-17 19:53:00,26.5,17.7,30.08,NNW,341,2.0,4.0,69,0.00,,,0.13,LWC V2.10 B1813,2013-01-18 00:53:00,
2013-01-17 19:58:00,26.5,17.7,30.08,WNW,303,1.0,3.0,69,0.00,,,0.13,LWC V2.10 B1813,2013-01-18 00:58:00,
2013-01-17 20:03:00,26.5,18.7,30.09,NW,313,0.0,3.0,72,0.00,,,0.13,LWC V2.10 B1813,2013-01-18 01:03:00,
2013-01-17 20:08:00,26.4,17.0,30.08,NNW,342,5.0,10.0,67,0.00,,,0.13,LWC V2.10 B1813,2013-01-18 01:08:00,
2013-01-17 20:13:00,26.5,16.7,30.08,West,280,6.0,6.0,66,0.00,,,0.13,LWC V2.10 B1813,2013-01-18 01:13:00,
2013-01-17 20:18:00,26.5,14.5,30.08,NW,325,14.0,14.0,60,0.00,,,0.13,LWC V2.10 B1813,2013-01-18 01:18:00,
2013-01-17 20:23:00,26.4,14.4,30.08,NW,315,7.0,8.0,60,0.00,,,0.13,LWC V2.10 B1813,2013-01-18 01:23:00,
2013-01-17 20:28:00,26.3,13.9,30.07,NNE,14,4.0,7.0,59,0.00,,,0.13,LWC V2.10 B1813,2013-01-18 01:28:00,
2013-01-17 20:33:00,26.2,13.5,30.07,NE,40,2.0,13.0,58,0.00,,,0.13,LWC V2.10 B1813,2013-01-18 01:33:00,
2013-01-17 20:38:00,26.1,14.5,30.06,NW,322,2.0,3.0,61,0.00,,,0.13,LWC V2.10 B1813,2013-01-18 01:38:00,
2013-01-17 20:43:00,26.0,13.7,30.07,NW,322,6.0,9.0,59,0.00,,,0.13,LWC V2.10 B1813,2013-01-18 01:43:00,
2013-01-17 20:48:00,25.9,13.2,30.07,NNW,336,6.0,8.0,58,0.00,,,0.13,LWC V2.10 B1813,2013-01-18 01:48:00,
2013-01-17 20:53:00,25.9,13.2,30.07,WNW,303,2.0,7.0,58,0.00,,,0.13,LWC V2.10 B1813,2013-01-18 01:53:00,
2013-01-17 20:58:00,25.9,12.8,30.07,NE,43,2.0,9.0,57,0.00,,,0.13,LWC V2.10 B1813,2013-01-18 01:58:00,
2013-01-17 21:03:00,25.8,12.7,30.07,NNW,336,1.0,8.0,57,0.00,,,0.13,LWC V2.10 B1813,2013-01-18 02:03:00,
2013-01-17 21:08:00,25.8,12.7,30.07,NW,305,1.0,6.0,57,0.00,,,0.13,LWC V2.10 B1813,2013-01-18 02:08:00,
2013-01-17 21:13:00,25.7,13.8,30.07,NNE,20,1.0,3.0,60,0.00,,,0.13,LWC V2.10 B1813,2013-01-18 02:13:00,
2013-01-17 21:18:00,25.7,12.6,30.08,NNE,21,1.0,2.0,57,0.00,,,0.13,LWC V2.10 B1813,2013-01-18 02:18:00,
2013-01-17 21:23:00,25.6,13.3,30.08,WNW,282,0.0,2.0,59,0.00,,,0.13,LWC V2.10 B1813,2013-01-18 02:23:00,
2013-01-17 21:28:00,25.5,13.6,30.07,West,265,1.0,2.0,60,0.00,,,0.13,LWC V2.10 B1813,2013-01-18 02:28:00,
2013-01-17 21:33:00,25.4,11.5,30.07,NNW,348,6.0,13.0,55,0.00,,,0.13,LWC V2.10 B1813,2013-01-18 02:33:00,
2013-01-17 21:38:00,25.3,11.4,30.07,NW,314,7.0,11.0,55,0.00,,,0.13,LWC V2.10 B1813,2013-01-18 02:38:00,
2013-01-17 21:43:00,25.2,12.5,30.06,WNW,286,0.0,2.0,58,0.00,,,0.13,LWC V2.10 B1813,2013-01-18 02:43:00,
2013-01-17 21:48:00,25.0,10.7,30.06,NNE,18,1.0,4.0,54,0.00,,,0.13,LWC V2.10 B1813,2013-01-18 02:48:00,
2013-01-17 21:53:00,24.9,10.2,30.06,NNW,336,3.0,4.0,53,0.00,,,0.13,LWC V2.10 B1813,2013-01-18 02:53:00,
2013-01-17 21:58:00,24.8,10.1,30.06,ENE,64,1.0,3.0,53,0.00,,,0.13,LWC V2.10 B1813,2013-01-18 02:58:00,
2013-01-17 22:03:00,24.7,10.5,30.06,NNW,343,2.0,3.0,54,0.00,,,0.13,LWC V2.10 B1813,2013-01-18 03:03:00,
2013-01-17 22:08:00,24.6,10.8,30.05,SSW,209,0.0,1.0,55,0.00,,,0.13,LWC V2.10 B1813,2013-01-18 03:08:00,
2013-01-17 22:13:00,24.5,11.1,30.06,West,270,0.0,0.0,56,0.00,,,0.13,LWC V2.10 B1813,2013-01-18 03:13:00,
2013-01-17 22:18:00,24.3,10.1,30.05,WNW,284,0.0,1.0,54,0.00,,,0.13,LWC V2.10 B1813,2013-01-18 03:18:00,
2013-01-17 22:23:00,24.3,10.5,30.04,WNW,286,0.0,1.0,55,0.00,,,0.13,LWC V2.10 B1813,2013-01-18 03:23:00,
2013-01-17 22:28:00,24.2,10.8,30.05,WNW,284,0.0,0.0,56,0.00,,,0.13,LWC V2.10 B1813,2013-01-18 03:28:00,
2013-01-17 22:33:00,24.1,10.3,30.05,WNW,286,1.0,1.0,55,0.00,,,0.13,LWC V2.10 B1813,2013-01-18 03:33:00,
2013-01-17 22:38:00,24.0,12.2,30.05,WNW,282,0.0,1.0,60,0.00,,,0.13,LWC V2.10 B1813,2013-01-18 03:38:00,
2013-01-17 22:48:00,23.9,12.1,30.05,WNW,290,1.0,1.0,60,0.00,,,0.13,LWC V2.10 B1813,2013-01-18 03:48:00,
2013-01-17 22:53:00,23.9,11.3,30.05,WNW,287,3.0,4.0,58,0.00,,,0.13,LWC V2.10 B1813,2013-01-18 03:53:00,
2013-01-17 22:58:00,23.9,10.9,30.04,NNW,330,1.0,3.0,57,0.00,,,0.13,LWC V2.10 B1813,2013-01-18 03:58:00,
2013-01-17 23:03:00,23.9,10.9,30.03,NNW,341,1.0,2.0,57,0.00,,,0.13,LWC V2.10 B1813,2013-01-18 04:03:00,
2013-01-17 23:08:00,23.8,11.6,30.03,NNW,343,0.0,0.0,59,0.00,,,0.13,LWC V2.10 B1813,2013-01-18 04:08:00,
2013-01-17 23:13:00,23.8,10.8,30.04,NW,305,0.0,1.0,57,0.00,,,0.13,LWC V2.10 B1813,2013-01-18 04:13:00,
2013-01-17 23:18:00,23.8,12.0,30.04,NW,306,0.0,0.0,60,0.00,,,0.13,LWC V2.10 B1813,2013-01-18 04:18:00,
2013-01-17 23:23:00,23.7,13.0,30.04,NW,307,0.0,1.0,63,0.00,,,0.13,LWC V2.10 B1813,2013-01-18 04:23:00,
2013-01-17 23:28:00,23.6,11.8,30.04,WNW,301,0.0,1.0,60,0.00,,,0.13,LWC V2.10 B1813,2013-01-18 04:28:00,
2013-01-17 23:33:00,23.5,12.4,30.04,WNW,301,0.0,1.0,62,0.00,,,0.13,LWC V2.10 B1813,2013-01-18 04:33:00,
2013-01-17 23:38:00,23.5,12.4,30.04,WNW,282,1.0,2.0,62,0.00,,,0.13,LWC V2.10 B1813,2013-01-18 04:38:00,
2013-01-17 23:43:00,23.5,12.4,30.04,ENE,69,2.0,2.0,62,0.00,,,0.13,LWC V2.10 B1813,2013-01-18 04:43:00,
2013-01-17 23:48:00,23.4,11.6,30.04,WNW,297,1.0,5.0,60,0.00,,,0.13,LWC V2.10 B1813,2013-01-18 04:48:00,
2013-01-17 23:53:00,23.4,11.2,30.04,NNW,346,0.0,4.0,59,0.00,,,0.13,LWC V2.10 B1813,2013-01-18 04:53:00,